Location: Grand Rapids
(42.9630°N, 85.6680°W)
Time: 01:30:03
(UTC-04:00)

S-56A Canister/Altair - Pass Details

Date: 31 May 2024
Orbit: 637 x 2489 km, 38.9° (Epoch: 21 June)

Event Time Altitude Azimuth Distance (km) Brightness Sun altitude
Rises 01:51:44 0° 179° (S) 5,893 - -25.0°
Reaches altitude 10° 01:57:59 10° 160° (SSE) 5,071 - -24.9°
Exits shadow 02:02:40 15° 141° (SE) 4,734 11.1 -24.8°
Maximum altitude 02:05:15 16° 130° (SE) 4,681 11.2 -24.8°
Drops below altitude 10° 02:12:28 10° 100° (E) 5,058 11.7 -24.6°
Sets 02:18:33 0° 81° (E) 5,875 12.3 -24.5°
